Location: Ch�teau-Arnoux
(44.0814°N, 6.0027°E)
Time: 04:50:49
(UTC+00:00)

Cosmos 2058 - Pass Details

Date: 15 November 2019
Orbit: 561 x 585 km, 82.5° (Epoch: 14 December)

Event Time Altitude Azimuth Distance (km) Brightness Sun altitude
Rises 03:51:38 0° 167° (SSE) 2,796 6.6 -28.5°
Reaches altitude 10° 03:53:55 10° 159° (SSE) 1,902 5.8 -28.1°
Maximum altitude 03:57:48 37° 92° (E) 913 4.4 -27.4°
Drops below altitude 10° 04:01:42 10° 25° (NNE) 1,912 5.8 -26.7°
Sets 04:04:00 0° 17° (NNE) 2,814 6.6 -26.3°
